📊 Raw Sensor Data

Showing records 35076 to 35100 of 84,871 total

ID Distance (ft) Battery V Battery A Int Temp (°F) Int Humid (%) Ext Temp (°F) Solar V RSSI SNR Time Stamp
49808 14.9 3.65 0 56 44 59 4.50 -70 8 08/21/2025 06:45 AM
49807 14.9 3.62 -8 56 44 57 1.70 -70 9 08/21/2025 06:30 AM
49806 14.9 3.64 -5 56 44 58 0.70 -70 9 08/21/2025 06:15 AM
49805 14.9 3.64 -5 57 44 58 0.00 -69 8 08/21/2025 06:00 AM
49804 14.9 3.79 -5 57 44 58 0.00 -69 8 08/21/2025 05:45 AM
49803 14.9 3.79 -5 57 44 58 0.00 -69 8 08/21/2025 05:30 AM
49802 14.9 3.79 -5 57 44 60 0.00 -70 8 08/21/2025 05:15 AM
49801 14.9 3.64 -5 58 44 60 0.00 -70 9 08/21/2025 05:00 AM
49800 14.9 3.66 -5 57 45 61 0.10 -71 8 08/21/2025 04:45 AM
49799 14.9 3.66 -5 57 44 60 0.00 -70 9 08/21/2025 04:30 AM
49798 14.9 3.64 -5 57 45 59 0.00 -71 8 08/21/2025 04:15 AM
49797 14.8 3.64 -5 58 45 59 0.00 -71 8 08/21/2025 04:00 AM
49796 14.8 3.80 -5 58 45 60 0.00 -70 8 08/21/2025 03:45 AM
49795 14.8 3.80 -5 58 45 60 0.00 -70 8 08/21/2025 03:30 AM
49794 14.8 3.66 -5 59 44 60 0.00 -71 8 08/21/2025 03:15 AM
49793 15.1 3.65 -5 59 45 61 0.10 -70 8 08/21/2025 03:00 AM
49792 14.8 3.66 -5 59 45 61 0.00 -71 7 08/21/2025 02:45 AM
49791 14.8 3.65 -5 59 45 61 0.00 -71 8 08/21/2025 02:30 AM
49790 14.8 3.65 -5 60 45 61 0.00 -69 9 08/21/2025 02:15 AM
49789 14.8 3.65 -5 60 46 61 0.00 -69 8 08/21/2025 02:00 AM
49788 14.8 3.65 -5 61 46 62 0.00 -70 8 08/21/2025 01:45 AM
49787 14.8 3.65 -5 61 46 63 0.00 -70 8 08/21/2025 01:30 AM
49786 14.8 3.63 -5 62 46 64 0.00 -70 8 08/21/2025 01:15 AM
49785 14.8 3.64 -5 62 47 63 0.00 -69 9 08/21/2025 01:00 AM
49784 14.8 3.65 -5 64 47 64 0.10 -70 8 08/21/2025 12:45 AM